This is the latest recevied weather packets stored in our database for station/object OH6LSL. If no packets are shown the sender has not sent any weather packets the latest 10 day(s).
| Time | Temp. | Humidity | Pressure | Rain* | Wind** | Luminosity | Snow |
|---|---|---|---|---|---|---|---|
| 1777908304 | 7.78° C | 46% | 995.6 hPa | 0 mm | - | 157 W/m² | - |
| 1777907679 | 7.22° C | 45% | 995.7 hPa | 0 mm | - | 171 W/m² | - |
| 1777903486 | 8.89° C | 41% | 995.8 hPa | 0 mm | - | 151 W/m² | - |
| 1777902291 | 9.44° C | 38% | 995.9 hPa | 0 mm | - | 230 W/m² | - |
| 1777898084 | 10.56° C | 33% | 996.2 hPa | 0 mm | - | 160 W/m² | - |
| 1777896275 | 10.56° C | 37% | 996.6 hPa | 0 mm | - | 199 W/m² | - |
| 1777894507 | 12.22° C | 27% | 996.9 hPa | 0 mm | - | 338 W/m² | - |
| 1777893890 | 13.33° C | 25% | 997 hPa | 0 mm | - | 454 W/m² | - |
| 1777893308 | 12.78° C | 24% | 997.2 hPa | 0 mm | - | 554 W/m² | - |
| 1777892678 | 12.78° C | 25% | 997.2 hPa | 0 mm | - | 509 W/m² | - |
| 1777891482 | 12.22° C | 28% | 997.8 hPa | 0 mm | - | 489 W/m² | - |
| 1777889676 | 10.56° C | 30% | 998.4 hPa | 0 mm | - | 373 W/m² | - |
| 1777887886 | 10.56° C | 29% | 998.9 hPa | 0 mm | - | 246 W/m² | - |
| 1777887274 | 10.56° C | 30% | 998.9 hPa | 0 mm | - | 246 W/m² | - |
| 1777886689 | 10.56° C | 30% | 999.2 hPa | 0 mm | - | 280 W/m² | - |
| 1777886090 | 10.56° C | 30% | 999.4 hPa | 0 mm | - | 301 W/m² | - |
| 1777885479 | 10.56° C | 33% | 999.4 hPa | 0 mm | - | 403 W/m² | - |
| 1777883710 | 10° C | 32% | 999.8 hPa | 0 mm | - | 343 W/m² | - |
| 1777882476 | 9.44° C | 34% | 1000.2 hPa | 0 mm | - | 222 W/m² | - |
| 1777880709 | 8.89° C | 35% | 1000.6 hPa | 0 mm | - | 153 W/m² | - |
| 1777878281 | 8.33° C | 37% | 1000.9 hPa | 0 mm | - | 88 W/m² | - |
| 1777875294 | 6.11° C | 51% | 1001.5 hPa | 0 mm | - | 107 W/m² | - |
| 1777872876 | 4.44° C | 54% | 1001.9 hPa | 0 mm | - | 62 W/m² | - |
| 1777872297 | 3.89° C | 55% | 1002.1 hPa | 0 mm | - | 56 W/m² | - |
| 1777871697 | 3.33° C | 55% | 1002.3 hPa | 0 mm | - | 40 W/m² | - |
* Rain latest hour (hover to see other rain measurements)
** Current wind speed in m/s (hover to see current wind gust speed)